Year,Month,Day,Hour,Minute,Value (Times are PST for temperature in C)
2013,07,05,09,22,16.20
2013,07,05,09,23,16.20
2013,07,05,09,24,16.30
2013,07,05,09,25,16.30
2013,07,05,09,26,16.40
2013,07,05,09,27,16.60
2013,07,05,09,28,16.60
2013,07,05,09,29,16.60
2013,07,05,09,30,16.70
2013,07,05,09,31,16.70
2013,07,05,09,32,16.70
2013,07,05,09,33,16.70
2013,07,05,09,34,16.80
2013,07,05,09,35,16.80
2013,07,05,09,36,16.80
2013,07,05,09,37,16.70
2013,07,05,09,38,16.70
2013,07,05,09,39,16.70
2013,07,05,09,40,16.70
2013,07,05,09,41,16.70
2013,07,05,09,42,16.70
2013,07,05,09,43,16.70
2013,07,05,09,44,16.80
2013,07,05,09,45,16.80
2013,07,05,09,46,16.80
2013,07,05,09,47,16.80
2013,07,05,09,48,16.80
2013,07,05,09,49,16.80
2013,07,05,09,50,16.80
2013,07,05,09,51,16.80
2013,07,05,09,52,16.80
2013,07,05,09,53,16.90
2013,07,05,09,54,16.90
2013,07,05,09,55,17.00
2013,07,05,09,56,17.00
2013,07,05,09,57,17.00
2013,07,05,09,58,17.10
2013,07,05,09,59,17.20
2013,07,05,10,00,17.20
2013,07,05,10,01,17.10
2013,07,05,10,02,17.10
2013,07,05,10,03,17.10
2013,07,05,10,04,17.10
2013,07,05,10,05,17.00
2013,07,05,10,06,17.00
2013,07,05,10,07,17.00
2013,07,05,10,08,16.90
2013,07,05,10,09,17.00
2013,07,05,10,10,17.00
2013,07,05,10,11,16.90
2013,07,05,10,12,16.90
2013,07,05,10,13,17.00
2013,07,05,10,14,17.10
2013,07,05,10,15,17.10
2013,07,05,10,16,17.20
2013,07,05,10,17,17.30
2013,07,05,10,18,17.30
2013,07,05,10,19,17.20
2013,07,05,10,20,17.10
2013,07,05,10,21,17.10
2013,07,05,10,22,17.10
2013,07,05,10,23,17.00
2013,07,05,10,24,17.00
2013,07,05,10,25,17.00
2013,07,05,10,26,17.00
2013,07,05,10,27,17.00
2013,07,05,10,28,17.00
2013,07,05,10,29,16.90
2013,07,05,10,30,17.00
2013,07,05,10,31,17.00
2013,07,05,10,32,16.90
2013,07,05,10,33,16.90
2013,07,05,10,34,16.90
2013,07,05,10,35,16.90
2013,07,05,10,36,17.00
2013,07,05,10,37,17.10
2013,07,05,10,38,17.20
2013,07,05,10,39,17.20
2013,07,05,10,40,17.20
2013,07,05,10,41,17.30
2013,07,05,10,42,17.40
2013,07,05,10,43,17.40
2013,07,05,10,44,17.50
2013,07,05,10,45,17.60
2013,07,05,10,46,17.70
2013,07,05,10,47,17.70
2013,07,05,10,48,17.70
2013,07,05,10,49,17.70
2013,07,05,10,50,17.60
2013,07,05,10,51,17.70
2013,07,05,10,52,17.70
2013,07,05,10,53,17.70
2013,07,05,10,54,17.70
2013,07,05,10,55,17.70
2013,07,05,10,56,17.70
2013,07,05,10,57,17.80
2013,07,05,10,58,17.70
2013,07,05,10,59,17.60
2013,07,05,11,00,17.60
2013,07,05,11,01,17.60
2013,07,05,11,02,17.60
2013,07,05,11,03,17.70
2013,07,05,11,04,17.70
2013,07,05,11,05,17.70
2013,07,05,11,06,17.60
2013,07,05,11,07,17.50
2013,07,05,11,08,17.40
2013,07,05,11,09,17.40
2013,07,05,11,10,17.40
2013,07,05,11,11,17.40
2013,07,05,11,12,17.30
2013,07,05,11,13,17.20
2013,07,05,11,14,17.10
2013,07,05,11,15,17.10
2013,07,05,11,16,17.10
2013,07,05,11,17,17.20
2013,07,05,11,18,17.30
2013,07,05,11,19,17.30
2013,07,05,11,20,17.40
2013,07,05,11,21,17.40
2013,07,05,11,22,17.40
2013,07,05,11,23,17.50
2013,07,05,11,24,17.50
2013,07,05,11,25,17.40
2013,07,05,11,26,17.40
2013,07,05,11,27,17.50
2013,07,05,11,28,17.50
2013,07,05,11,29,17.40
2013,07,05,11,30,17.40
2013,07,05,11,31,17.50
2013,07,05,11,32,17.60
2013,07,05,11,33,17.70
2013,07,05,11,34,17.80
2013,07,05,11,35,17.80
2013,07,05,11,36,17.80
2013,07,05,11,37,17.90
2013,07,05,11,38,18.00
2013,07,05,11,39,18.10
2013,07,05,11,40,18.20
2013,07,05,11,41,18.40
2013,07,05,11,42,18.50
2013,07,05,11,43,18.50
2013,07,05,11,44,18.40
2013,07,05,11,45,18.30
2013,07,05,11,46,18.20
2013,07,05,11,47,18.20
2013,07,05,11,48,18.10
2013,07,05,11,49,18.10
2013,07,05,11,50,18.10
2013,07,05,11,51,18.20
2013,07,05,11,52,18.20
2013,07,05,11,53,18.30
2013,07,05,11,54,18.30
2013,07,05,11,55,18.30
2013,07,05,11,56,18.30
2013,07,05,11,57,18.20
2013,07,05,11,58,18.10
2013,07,05,11,59,18.10
2013,07,05,12,00,18.10
2013,07,05,12,01,18.00
2013,07,05,12,02,17.90
2013,07,05,12,03,17.90
2013,07,05,12,04,17.90
2013,07,05,12,05,17.80
2013,07,05,12,06,17.80
2013,07,05,12,07,17.80
2013,07,05,12,08,17.90
2013,07,05,12,09,18.00
2013,07,05,12,10,18.10
2013,07,05,12,11,18.20
2013,07,05,12,12,18.30
2013,07,05,12,13,18.30
2013,07,05,12,14,18.30
2013,07,05,12,15,18.40
2013,07,05,12,16,18.50
2013,07,05,12,17,18.60
2013,07,05,12,18,18.70
2013,07,05,12,19,18.60
2013,07,05,12,20,18.50
2013,07,05,12,21,18.40
2013,07,05,12,22,18.40
2013,07,05,12,23,18.40
2013,07,05,12,24,18.40
2013,07,05,12,25,18.40
2013,07,05,12,26,18.50
2013,07,05,12,27,18.50
2013,07,05,12,28,18.50
2013,07,05,12,29,18.60
2013,07,05,12,30,18.70
2013,07,05,12,31,18.90
2013,07,05,12,32,18.90
2013,07,05,12,33,18.90
2013,07,05,12,34,18.80
2013,07,05,12,35,18.80
2013,07,05,12,36,18.70
2013,07,05,12,37,18.70
2013,07,05,12,38,18.70
2013,07,05,12,39,18.60
2013,07,05,12,40,18.50
2013,07,05,12,41,18.60
2013,07,05,12,42,18.50
2013,07,05,12,43,18.50
2013,07,05,12,44,18.50
2013,07,05,12,45,18.50
2013,07,05,12,46,18.60
2013,07,05,12,47,18.60
2013,07,05,12,48,18.70
2013,07,05,12,49,18.70
2013,07,05,12,50,18.80
2013,07,05,12,51,18.80
2013,07,05,12,52,18.80
2013,07,05,12,53,18.70
2013,07,05,12,54,18.70
2013,07,05,12,55,18.70
2013,07,05,12,56,18.80
2013,07,05,12,57,18.90
2013,07,05,12,58,18.90
2013,07,05,12,59,18.90
2013,07,05,13,00,18.90
2013,07,05,13,01,18.90
2013,07,05,13,02,18.90
2013,07,05,13,03,18.90
2013,07,05,13,04,18.80
2013,07,05,13,05,18.90
2013,07,05,13,06,18.80
2013,07,05,13,07,18.80
2013,07,05,13,08,18.80
2013,07,05,13,09,18.80
2013,07,05,13,10,18.90
2013,07,05,13,11,18.90
2013,07,05,13,12,19.00
2013,07,05,13,13,19.10
2013,07,05,13,14,19.20
2013,07,05,13,15,19.30
2013,07,05,13,16,19.20
2013,07,05,13,17,19.10
2013,07,05,13,18,19.10
2013,07,05,13,19,19.20
2013,07,05,13,20,19.20
2013,07,05,13,21,19.30
2013,07,05,13,22,19.30
2013,07,05,13,23,19.30
2013,07,05,13,24,19.30
2013,07,05,13,25,19.40
2013,07,05,13,26,19.50
2013,07,05,13,27,19.50
2013,07,05,13,28,19.40
2013,07,05,13,29,19.40
2013,07,05,13,30,19.40
2013,07,05,13,31,19.50
2013,07,05,13,32,19.60
2013,07,05,13,33,19.60
2013,07,05,13,34,19.70
2013,07,05,13,35,19.70
2013,07,05,13,36,19.60
2013,07,05,13,37,19.50
2013,07,05,13,38,19.50
2013,07,05,13,39,19.60
2013,07,05,13,40,19.70
2013,07,05,13,41,19.80
2013,07,05,13,42,19.70
2013,07,05,13,43,19.60
2013,07,05,13,44,19.50
2013,07,05,13,45,19.50
2013,07,05,13,46,19.50
2013,07,05,13,47,19.50
2013,07,05,13,48,19.50
2013,07,05,13,49,19.50
2013,07,05,13,50,19.60
2013,07,05,13,51,19.60
2013,07,05,13,52,19.60
2013,07,05,13,53,19.70
2013,07,05,13,54,19.80
2013,07,05,13,55,19.80
2013,07,05,13,56,19.80
2013,07,05,13,57,19.80
2013,07,05,13,58,19.80
2013,07,05,13,59,19.90
2013,07,05,14,00,20.00
2013,07,05,14,01,20.20
2013,07,05,14,02,20.20
2013,07,05,14,03,20.20
2013,07,05,14,04,20.20
2013,07,05,14,05,20.20
2013,07,05,14,06,20.10
2013,07,05,14,07,20.00
2013,07,05,14,08,20.00
2013,07,05,14,09,19.80
2013,07,05,14,10,19.70
2013,07,05,14,11,19.60
2013,07,05,14,12,19.60
2013,07,05,14,13,19.50
2013,07,05,14,14,19.50
2013,07,05,14,15,19.50
2013,07,05,14,16,19.50
2013,07,05,14,17,19.50
2013,07,05,14,18,19.60
2013,07,05,14,19,19.70
2013,07,05,14,20,19.80
2013,07,05,14,21,19.90
2013,07,05,14,22,19.90
2013,07,05,14,23,19.90
2013,07,05,14,24,20.00
2013,07,05,14,25,19.90
2013,07,05,14,26,19.90
2013,07,05,14,27,19.80
2013,07,05,14,28,19.80
2013,07,05,14,29,19.70
2013,07,05,14,30,19.60
2013,07,05,14,31,19.60
2013,07,05,14,32,19.60
2013,07,05,14,33,19.70
2013,07,05,14,34,19.70
2013,07,05,14,35,19.80
2013,07,05,14,36,19.90
2013,07,05,14,37,19.90
2013,07,05,14,38,19.90
2013,07,05,14,39,19.90
2013,07,05,14,40,20.00
2013,07,05,14,41,20.00
2013,07,05,14,42,20.10
2013,07,05,14,43,20.10
2013,07,05,14,44,20.10
2013,07,05,14,45,20.20
2013,07,05,14,46,20.20
2013,07,05,14,47,20.20
2013,07,05,14,48,20.30
2013,07,05,14,49,20.40
2013,07,05,14,50,20.40
2013,07,05,14,51,20.40
2013,07,05,14,52,20.40
2013,07,05,14,53,20.40
2013,07,05,14,54,20.30
2013,07,05,14,55,20.20
2013,07,05,14,56,20.20
2013,07,05,14,57,20.10
2013,07,05,14,58,20.20
2013,07,05,14,59,20.30
2013,07,05,15,00,20.40
2013,07,05,15,01,20.30
2013,07,05,15,02,20.20
2013,07,05,15,03,20.20
2013,07,05,15,04,20.20
2013,07,05,15,05,20.30
2013,07,05,15,06,20.30
2013,07,05,15,07,20.30
2013,07,05,15,08,20.30
2013,07,05,15,09,20.30
2013,07,05,15,10,20.30
2013,07,05,15,11,20.30
2013,07,05,15,12,20.30
2013,07,05,15,13,20.30
2013,07,05,15,14,20.30
2013,07,05,15,15,20.30
2013,07,05,15,16,20.30
2013,07,05,15,17,20.40
2013,07,05,15,18,20.50
2013,07,05,15,19,20.60
2013,07,05,15,20,20.70
2013,07,05,15,21,20.70
2013,07,05,15,22,20.70
2013,07,05,15,23,20.60
2013,07,05,15,24,20.60
2013,07,05,15,25,20.60
2013,07,05,15,26,20.60
2013,07,05,15,27,20.70
2013,07,05,15,28,20.80
2013,07,05,15,29,20.90
2013,07,05,15,30,20.90
2013,07,05,15,31,21.00
2013,07,05,15,32,21.10
2013,07,05,15,33,21.20
2013,07,05,15,34,21.20
2013,07,05,15,35,21.20
2013,07,05,15,36,21.30
2013,07,05,15,37,21.30
2013,07,05,15,38,21.30
2013,07,05,15,39,21.30
2013,07,05,15,40,21.40
2013,07,05,15,41,21.40
2013,07,05,15,42,21.30
2013,07,05,15,43,21.30
2013,07,05,15,44,21.20
2013,07,05,15,45,21.20
2013,07,05,15,46,21.20
2013,07,05,15,47,21.20
2013,07,05,15,48,21.20
2013,07,05,15,49,21.20
2013,07,05,15,50,21.10
2013,07,05,15,51,21.20
2013,07,05,15,52,21.20
2013,07,05,15,53,21.20
2013,07,05,15,54,21.30
2013,07,05,15,55,21.30
2013,07,05,15,56,21.30
2013,07,05,15,57,21.30
2013,07,05,15,58,21.20
2013,07,05,15,59,21.20
2013,07,05,16,00,21.20
2013,07,05,16,01,21.30
2013,07,05,16,02,21.30
2013,07,05,16,03,21.40
2013,07,05,16,04,21.40
2013,07,05,16,05,21.30
2013,07,05,16,06,21.20
2013,07,05,16,07,21.10
2013,07,05,16,08,21.20
2013,07,05,16,09,21.20
2013,07,05,16,10,21.30
2013,07,05,16,11,21.30
2013,07,05,16,12,21.30
2013,07,05,16,13,21.30
2013,07,05,16,14,21.40
2013,07,05,16,15,21.50
2013,07,05,16,16,21.50
2013,07,05,16,17,21.40
2013,07,05,16,18,21.40
2013,07,05,16,19,21.40
2013,07,05,16,20,21.40
2013,07,05,16,21,21.50
2013,07,05,16,22,21.50
2013,07,05,16,23,21.40
2013,07,05,16,24,21.40
2013,07,05,16,25,21.40
2013,07,05,16,26,21.30
2013,07,05,16,27,21.20
2013,07,05,16,28,21.20
2013,07,05,16,29,21.20
2013,07,05,16,30,21.30
2013,07,05,16,31,21.30
2013,07,05,16,32,21.30
2013,07,05,16,33,21.40
2013,07,05,16,34,21.50
2013,07,05,16,35,21.50
2013,07,05,16,36,21.60
2013,07,05,16,37,21.70
2013,07,05,16,38,21.80
2013,07,05,16,39,21.80
2013,07,05,16,40,21.80
2013,07,05,16,41,21.80
2013,07,05,16,42,21.90
2013,07,05,16,43,21.90
2013,07,05,16,44,21.90
2013,07,05,16,45,22.00
2013,07,05,16,46,22.00
2013,07,05,16,47,22.00
2013,07,05,16,48,22.00
2013,07,05,16,49,22.20
2013,07,05,16,50,22.20
2013,07,05,16,51,22.20
2013,07,05,16,52,22.10
2013,07,05,16,53,22.10
2013,07,05,16,54,22.10
2013,07,05,16,55,22.10
2013,07,05,16,56,22.10
2013,07,05,16,57,22.10
2013,07,05,16,58,22.00
2013,07,05,16,59,22.10
2013,07,05,17,00,22.10
2013,07,05,17,01,22.10
2013,07,05,17,02,22.20
2013,07,05,17,03,22.20
2013,07,05,17,04,22.20
2013,07,05,17,05,22.20
2013,07,05,17,06,22.20
2013,07,05,17,07,22.10
2013,07,05,17,08,22.00
2013,07,05,17,09,22.00
2013,07,05,17,10,21.90
2013,07,05,17,11,21.90
2013,07,05,17,12,21.90
2013,07,05,17,13,21.80
2013,07,05,17,14,21.70
2013,07,05,17,15,21.70
2013,07,05,17,16,21.60
2013,07,05,17,17,21.60
2013,07,05,17,18,21.50
2013,07,05,17,19,21.50
2013,07,05,17,20,21.60
2013,07,05,17,21,21.60
2013,07,05,17,22,21.60
2013,07,05,17,23,21.60
2013,07,05,17,24,21.70
2013,07,05,17,25,21.70
2013,07,05,17,26,21.80
2013,07,05,17,27,21.70
2013,07,05,17,28,21.60
2013,07,05,17,29,21.60
2013,07,05,17,30,21.60
2013,07,05,17,31,21.60
2013,07,05,17,32,21.70
2013,07,05,17,33,21.70
2013,07,05,17,34,21.70
2013,07,05,17,35,21.70
2013,07,05,17,36,21.60
2013,07,05,17,37,21.60
2013,07,05,17,38,21.50
2013,07,05,17,39,21.40
2013,07,05,17,40,21.50
2013,07,05,17,41,21.60
2013,07,05,17,42,21.60
2013,07,05,17,43,21.60
2013,07,05,17,44,21.50
2013,07,05,17,45,21.50
2013,07,05,17,46,21.60
2013,07,05,17,47,21.60
2013,07,05,17,48,21.60
2013,07,05,17,49,21.70
2013,07,05,17,50,21.70
2013,07,05,17,51,21.80
2013,07,05,17,52,21.70
2013,07,05,17,53,21.70
2013,07,05,17,54,21.70
2013,07,05,17,55,21.70
2013,07,05,17,56,21.70
2013,07,05,17,57,21.70
2013,07,05,17,58,21.60
2013,07,05,17,59,21.60
2013,07,05,18,00,21.60
2013,07,05,18,01,21.70
2013,07,05,18,02,21.70
2013,07,05,18,03,21.80
2013,07,05,18,04,21.90
2013,07,05,18,05,21.90
2013,07,05,18,06,21.90
2013,07,05,18,07,22.00
2013,07,05,18,08,22.00
2013,07,05,18,09,22.00
2013,07,05,18,10,21.90
2013,07,05,18,11,21.90
2013,07,05,18,12,21.90
2013,07,05,18,13,21.90
2013,07,05,18,14,21.90
2013,07,05,18,15,22.00
2013,07,05,18,16,22.10
2013,07,05,18,17,22.10
2013,07,05,18,18,22.10
2013,07,05,18,19,22.20
2013,07,05,18,20,22.20
2013,07,05,18,21,22.20
2013,07,05,18,22,22.20
2013,07,05,18,23,22.30
2013,07,05,18,24,22.30
2013,07,05,18,25,22.30
2013,07,05,18,26,22.30
2013,07,05,18,27,22.30
2013,07,05,18,28,22.20
2013,07,05,18,29,22.30
2013,07,05,18,30,22.30
2013,07,05,18,31,22.20
2013,07,05,18,32,22.20
2013,07,05,18,33,22.20
2013,07,05,18,34,22.10
2013,07,05,18,35,22.10
2013,07,05,18,36,22.10
2013,07,05,18,37,22.10
2013,07,05,18,38,22.10
2013,07,05,18,39,22.10
2013,07,05,18,40,22.10
2013,07,05,18,41,22.10
2013,07,05,18,42,22.10
2013,07,05,18,43,22.20
2013,07,05,18,44,22.20
2013,07,05,18,45,22.20
2013,07,05,18,46,22.30
2013,07,05,18,47,22.30
2013,07,05,18,48,22.20
2013,07,05,18,49,22.20
2013,07,05,18,50,22.20
2013,07,05,18,51,22.20
2013,07,05,18,52,22.20
2013,07,05,18,53,22.20
2013,07,05,18,54,22.20
2013,07,05,18,55,22.20
2013,07,05,18,56,22.20
2013,07,05,18,57,22.20
2013,07,05,18,58,22.20
